Regional Weather Roundup
Issued by NWS Newport/Morehead, NC

Current Version | Previous Version | Text Only | Print | Product List | Glossary On
Versions: 1 2 3 4 5 6 7 8 9 10 11 12 13 14 15 16 17 18 19 20 21 22 23 24 25 26 27 28 29 30 31 32 33 34 35 36 37 38 39 40 41 42 43 44 45 46 47 48 49 50
000
ASUS42 KMHX 240913
RWRMHX
WEATHER ROUNDUP FOR EASTERN NORTH CAROLINA
NATIONAL WEATHER SERVICE NEWPORT/MOREHEAD CITY NC
500 AM EDT SUN MAY 24 2015

NOTE: "FAIR" INDICATES FEW OR NO CLOUDS BELOW 12,000 FEET
WITH NO SIGNIFICANT WEATHER AND/OR OBSTRUCTIONS TO VISIBILITY

NCZ015>017-031-032-045>047-102-103-241000-
NORTH COAST

CITY           SKY/WX    TMP DP  RH WIND       PRES   REMARKS
EDENTON        CLEAR     54  51  92 CALM      30.40S
ELIZABETH CITY CLEAR     58  54  86 E5        30.40S
KITTY HAWK     SUNNY     60  55  84 E3        30.39S
MANTEO         CLEAR     60  55  83 E6        30.40S

$$

NCZ045>047-081-094-103-104-241000-
CENTRAL COAST

CITY           SKY/WX    TMP DP  RH WIND       PRES   REMARKS
FRISCO         CLEAR     61  56  83 NE6       30.39R
SWANQUARTER      N/A     59 N/A N/A NE6       30.36S

$$

NCZ095-097-098-100-101-241000-
SOUTHERN COAST

CITY           SKY/WX    TMP DP  RH WIND       PRES   REMARKS
BEAUFORT       CLEAR     61  60  97 NE3       30.38R
CEDAR ISLAND     N/A     68 N/A N/A E7        30.41S
JACKSONVILLE   CLEAR     60  56  86 NE5       30.37S
PINEY ISLAND   FLURRIES N/A N/A N/A E6        30.38R
WILMINGTON     PTCLDY    61  59  93 NE3       30.37R


$$

NCZ011>013-027>030-043-044-078>080-089-090>093-098-241000-
COASTAL PLAIN

CITY           SKY/WX    TMP DP  RH WIND       PRES   REMARKS
AHOSKIE        CLEAR     50  48  92 CALM      30.40S
CLINTON        CLEAR     58  56  94 CALM      30.39R
ELIZABETHTOWN  CLEAR     57  56  97 CALM      30.37S
GOLDSBORO      CLEAR     55  53  93 CALM      30.37R
GREENVILLE     CLEAR     54  54 100 CALM      30.39S
HAVELOCK       CLEAR     59  54  83 CALM      30.39R
KENANSVILLE    CLEAR     53  52  95 CALM      30.39S
KINSTON        CLEAR     54  53  96 CALM      30.39S
NEW BERN       CLEAR     57  53  86 CALM      30.39S
RICHLANDS      CLEAR     54  48  82 CALM      30.38S
ROCKY MOUNT    CLEAR     54  52  93 CALM      30.39S
WASHINGTON     CLEAR     54  51  90 CALM      30.39S
WHITEVILLE     MOCLDY    57  55  94 CALM      30.37R

$$

AMZ130-135-150-152-154-156-158-170-250-252-270-ANZ085-086-088-633-658-670-241000-
MARINE OBSERVATIONS

STATION/POSITION TIME  TEMP    WIND        PRES    WAVE   SWELL
                       AIR SEA DIR/SP/G            HT/PER HT/PER
                 (UTC) (F)     (DEG/KT/KT) (MB)    (FT/S) (FT/S)
CHESAPEAKE LIGHT 0800   61     150/ 11/ 12 1030.2
64 E VA BEACH    0850   61 60  110/  6/  6 1029.5    2/ 6   2/ 6
DUCK             0800   61 64  100/ 10/ 11 1028.4
2 E DUCK         0811      63                N/A     2/ 6
OREGON INLET     0800   63 71   60/  8/ 10 1029.1
13E OREGON INLT  0900      63                N/A     2/ 5
HATTERAS CG      0800   64 73   70/  5/  7 1028.2
DIAMOND BUOY     0850   72 77  100/  4/  6 1028.8    3/ 6   2/ 6
CAPE LOOKOUT     0900   72     120/  6/  6 1028.4
BEAUFORT LAB     0800   64 74   40/  4/  5 1027.5
27 SE WRIGHTSVLE 0800   71 77  130/  8/ 10   N/A
5 SE WRIGHTSVLE  0808   74 76  140/ 12/ 16 1027.7
225 S CAPE HAT   0850   72 74   80/ 19/ 23 1026.4    6/ 7
41 SE CHARLESTON 0850   74 75  100/ 16/ 17 1026.0    5/ 7   2/ 8

$$



USA.gov is the U.S. government's official web portal to all federal, state and local government web resources and services.